Find Starlink 31463

NORAD ID: 59296 Int'l Des: 2024-056 Owner: SPXS Country: US Constellation: starlink operational
LEOCIRCULAR

Current View

Loading 3D Globe...

About Starlink 31463

Starlink 31463 (NORAD 59296) is a starlink constellation satellite (v2 mini) launched Mar 24, 2024 by SPXS of US. It operates in LEO, CIRCULAR orbit with a mass of 730.00 kg.

Upcoming Passes

Passes for default location (London). Set your location on the main map for personalized predictions.

Altitude History

Loading altitude history...

Two-Line Element Set

1 59296U 24056A 26264.21874737 .00000516 00000-0 28264-4 0 9995
2 59296 43.0055 202.5191 0000910 272.0998 87.9749 15.27576955141100
Epoch: Sep 21, 2026 • Age: 9 hours

Current Status

Altitude 486.3 km
Apogee / Perigee N/A
Velocity 7.62 km/s
Sub-Earth Point -16.90°S, 170.94°W
Launch Date Mar 24, 2024
Age 2.4 years
Type internet

Technical Details

Classification Payload
Mass 730.00 kg
Dry Mass 700.00 kg
Length 0.30 m
Span 29.00 m
Shape ? Box + pan
Manufacturer SPXS
Bus Type Starlink V2M
Phase Status In Orbit
Owner/State SPXS/US

Most Searched